Flag for Monaco Weather past 2 weeks in Monaco, Monaco

Now
43 °F

Sunny.


Feels Like: 37 °F
Forecast: 39 / 54 °F
Wind: 10 mph from North

Location: Nice Airport

Current Time: Mar 6, 2015 at 7:51:12 AM

Latest Report: Mar 6, 2015 at 7:30 AM


Visibility: 10 mi

Pressure: 30.36 "Hg

Humidity: 36%

Dew point: 18 °F

Location of MonacoLocation

Historic Weather in Monaco — Graph

°F

Monaco temperature yesterday

Maximum temperature yesterday: 61 °F (at 3:00 PM)
Minimum temperature yesterday: 41 °F (at 7:30 AM)
Average temperature yesterday: 52 °F

Past Weeks' High & Low Weather Summary

 TemperatureHumidityPressure
High72 °F (Mar 2, 1:00 PM)93% (Feb 21, 3:00 PM)30.48 "Hg (Feb 21, 3:00 PM)
Low41 °F (Feb 19, 6:50 AM)12% (Mar 5, 3:00 PM)29.42 "Hg (Feb 22, 4:00 AM)
Average51 °F62%29.92 "Hg
* Reported Feb 19 6:30 AM — Mar 6 6:30 AM, Monaco, Weather by CustomWeather, © 2015

Note: Actual official high and low records may vary slightly from our data, if they occured in-between our weather recording intervals... More about our weather records

Advertising

Monaco weather history for previous 24 hours

 ConditionsComfort  
Time TempWeatherWind HumidityBarometerVisibility
6:30 AM
Fri, Mar 6
43 °FClear.13 mph34%30.36 "Hg10 mi
6:00 AM43 °FClear.13 mph34%30.33 "Hg10 mi
5:30 AM43 °FClear.13 mph36%30.33 "Hg10 mi
5:00 AM43 °FClear.15 mph36%30.33 "Hg10 mi
4:30 AM43 °FClear.14 mph36%30.33 "Hg10 mi
4:00 AM43 °FClear.14 mph36%30.33 "Hg10 mi
3:30 AM43 °FClear.13 mph39%30.33 "Hg10 mi
3:00 AM43 °FClear.10 mph39%30.30 "Hg10 mi
2:30 AM43 °FClear.7 mph39%30.30 "Hg10 mi
2:00 AM43 °FClear.12 mph42%30.30 "Hg10 mi
1:30 AM43 °FClear.8 mph39%30.27 "Hg10 mi
1:00 AM43 °FClear.10 mph42%30.27 "Hg10 mi
12:30 AM43 °FClear.8 mph39%30.24 "Hg10 mi
12:00 AM43 °FClear.10 mph46%30.24 "Hg10 mi
11:30 PM
Thu, Mar 5
43 °FClear.12 mph46%30.21 "Hg10 mi
11:00 PM48 °FClear.3 mph37%30.21 "Hg10 mi
10:30 PM46 °FClear.8 mph40%30.21 "Hg10 mi
10:00 PM46 °FPassing clouds.3 mph37%30.21 "HgN/A
9:30 PM50 °FPassing clouds.3 mph35%30.18 "HgN/A
9:00 PM50 °FPassing clouds.6 mph43%30.18 "HgN/A
8:30 PM52 °FClear.7 mph44%30.18 "Hg10 mi
8:00 PM54 °FPassing clouds.6 mph28%30.15 "HgN/A
7:30 PM54 °FPassing clouds.8 mph26%30.15 "HgN/A
7:00 PM55 °FPassing clouds.8 mph23%30.15 "HgN/A
6:30 PM59 °FPassing clouds.10 mph21%30.12 "HgN/A
6:00 PM59 °FPassing clouds.12 mph29%30.12 "HgN/A
5:30 PM59 °FPassing clouds.13 mph23%30.09 "HgN/A
5:00 PM61 °FPassing clouds.12 mph20%30.09 "HgN/A
4:30 PM61 °FPassing clouds.12 mph20%30.09 "HgN/A
4:00 PM61 °FPassing clouds.14 mph15%30.09 "HgN/A
3:30 PM61 °FPassing clouds.20 mph12%30.09 "HgN/A
3:00 PM61 °FPassing clouds.17 mph12%30.09 "HgN/A
2:30 PM59 °FScattered clouds.9 mph27%30.09 "HgN/A
2:00 PM59 °FScattered clouds.8 mph34%30.09 "HgN/A
1:30 PM59 °FPassing clouds.9 mph34%30.09 "HgN/A
1:00 PM59 °FPassing clouds.9 mph34%30.09 "HgN/A
12:30 PM57 °FPassing clouds.10 mph33%30.09 "HgN/A
12:00 PM57 °FPassing clouds.10 mph39%30.09 "HgN/A
11:30 AM57 °FSunny.10 mph41%30.07 "Hg10 mi
11:08 AM57 °FSunny.9 mph48%30.07 "Hg10 mi
10:40 AM55 °FPassing clouds.6 mph44%30.07 "HgN/A
10:00 AM55 °FPassing clouds.5 mph41%30.07 "HgN/A
9:30 AM52 °FSunny.5 mph44%30.04 "Hg10 mi
9:00 AM48 °FSunny.2 mph50%30.04 "Hg10 mi
8:30 AM46 °FSunny.6 mph53%30.01 "Hg10 mi
8:00 AM43 °FSunny.8 mph61%30.01 "Hg10 mi
7:30 AM41 °FSunny.8 mph70%29.98 "Hg10 mi
7:00 AM43 °FClear.9 mph66%29.98 "Hg10 mi
Weather by CustomWeather, © 2015

See weather overviewHow to use our weather pages